Regional Weather Roundup
Issued by NWS

Home | Current Version | Previous Version | Graphics & Text | Print | Product List | Glossary On
Versions: 1 2 3 4 5 6 7 8 9 10 11 12 13 14 15 16 17 18 19 20 21 22 23 24 25 26 27 28 29 30 31 32 33 34 35 36 37 38 39 40 41 42 43 44 45 46 47 48 49 50
000
ASUS43 KOAX 280110
RWRNE

WEATHER ROUNDUP FOR NEBRASKA
NATIONAL WEATHER SERVICE OMAHA NE
800 PM CDT WED AUG 27 2014

NOTES: SATELLITE DATA IS BEING USED TO AUGMENT CLOUD COVER ABOVE
       12000 FEET.
       "FAIR" INDICATES FEW OR NO CLOUDS BELOW 12,000 FEET WITH NO
       SIGNIFICANT WEATHER AND/OR OBSTRUCTIONS TO VISIBILITY.

  * THESE STATIONS DO NOT REPORT WEATHER SUCH AS RAIN...SNOW OR FOG.

NEZ001>004-019>022-054>056-280200-
NEBRASKA PANHANDLE

CITY           SKY/WX    TMP DP  RH WIND       PRES   REMARKS
SCOTTSBLUFF    PTCLDY    68  61  78 W6        30.08R
ALLIANCE       CLOUDY    68  62  81 NE10      30.05R
CHADRON        MOCLDY    66  63  90 NE8       30.04R
KIMBALL        MOCLDY    65  58  78 NW7       30.10R
SIDNEY         MOCLDY    70  58  65 NE5       30.07R
$$

NEZ057>060-069>072-079>082-280200-
SOUTHWEST NEBRASKA

CITY           SKY/WX    TMP DP  RH WIND       PRES   REMARKS
NORTH PLATTE   CLOUDY    68  66  93 SE10      30.03R
IMPERIAL       RAIN      71  65  81 SE25G32   29.99S
LEXINGTON      CLOUDY    72  70  94 SE9       30.02F
MCCOOK         MOCLDY    70  67  90 SE12      30.00F
OGALLALA       CLOUDY    67  63  84 E10G20    30.00S
$$

NEZ005>010-023>029-035>040-094-280200-
NORTH CENTRAL NEBRASKA

CITY           SKY/WX    TMP DP  RH WIND       PRES   REMARKS
VALENTINE      LGT RAIN  70  68  93 SE5       30.04R
AINSWORTH      CLOUDY    69  65  86 E3        30.05R
BROKEN BOW     LGT RAIN  71  69  93 SE8       30.03S FOG
O`NEILL        CLOUDY    71  69  94 E6        30.04F
ORD            CLOUDY    74  69  85 SE6       30.02S
THEDFORD       CLOUDY    73  67  84 SE7       30.05R
$$

NEZ041-046>049-061>064-073>077-083>087-280200-
SOUTH CENTRAL NEBRASKA

CITY           SKY/WX    TMP DP  RH WIND       PRES   REMARKS
GRAND ISLAND   CLOUDY    73  69  87 SE6       30.03F
AURORA         CLOUDY    73  73 100 SE3       30.03F
HASTINGS       LGT RAIN  73  68  84 SE8       30.03F
HEBRON         CLOUDY    76  70  82 E3        30.01F
HOLDREGE       CLOUDY    72  69  90 CALM      30.02S
KEARNEY *      CLOUDY    70  66  88 E8        30.04S
YORK           CLOUDY    72 N/A N/A SE8       30.04S
$$

NEZ011>018-030>034-042>045-280200-
NORTHEAST NEBRASKA

CITY           SKY/WX    TMP DP  RH WIND       PRES   REMARKS
NORFOLK        CLOUDY    71  68  90 E9        30.04S
ALBION         CLOUDY    72  68  88 E6        30.04S
BLAIR          MOCLDY    71  68  90 E7        30.05S
FREMONT        CLOUDY    73  69  88 E9        30.05S
TEKAMAH        MOCLDY    72  69  90 E6        30.05F
WAYNE          LGT RAIN  69  68  96 E8        30.06R
$$

NEZ050>053-065>068-078-088>093-280200-
SOUTHEAST NEBRASKA

CITY           SKY/WX    TMP DP  RH WIND       PRES   REMARKS
LINCOLN        LGT RAIN  73  70  90 SE6       30.04S
OMAHA EPPLEY   CLOUDY    73  69  87 E6        30.04F
BEATRICE       CLOUDY    74  72  93 E3        30.03S
FALLS CITY     CLOUDY    76  72  87 E6        30.03S
NEBRASKA CITY  CLOUDY    72  72 100 E5        30.05R
PLATTSMOUTH    CLOUDY    73  69  88 CALM      30.05R
$$

NEZ044-045-051>053-067-280200-
OMAHA AREA

CITY           SKY/WX    TMP DP  RH WIND       PRES   REMARKS
OMAHA EPPLEY   CLOUDY    73  69  87 E6        30.04F
BLAIR          MOCLDY    71  68  90 E7        30.05S
FREMONT        CLOUDY    73  69  88 E9        30.05S
MILLARD        CLOUDY    74  69  86 CALM      30.04S
OFFUTT AFB     MOCLDY    74  73  99 E6        30.04S
PLATTSMOUTH    CLOUDY    73  69  88 CALM      30.05R
WAHOO          MOCLDY    73  68  86 E5        30.04S
$$


USA.gov is the U.S. government's official web portal to all federal, state and local government web resources and services.